Fort Pierre, SD

5:22 AM MDT on September 28, 2016 (GMT -0600)
Pierre Regional

Weather History for KPIR - October, 2013

Change the Weather History Date:

Friday, October 25, 2013

  Actual Average Record
Temperature  
Mean Temperature 48 °F 45 °F  
Max Temperature 69 °F 57 °F 88 °F (1940)
Min Temperature 27 °F 33 °F 14 °F (1997)
Degree Days  
Heating Degree Days 17 20  
Month to date heating degree days 445 378  
Since 1 July heating degree days 510 549  
Cooling Degree Days 0 0  
Month to date cooling degree days 0 2  
Year to date cooling degree days 853 865  
Moisture  
Dew Point 34 °F    
Average Humidity 65    
Maximum Humidity 92    
Minimum Humidity 37    
Precipitation  
Precipitation 0.00 in 0.04 in 0.85 in (1954)
Month to date precipitation 4.66 1.42  
Year to date precipitation 22.74 18.47  
Snow  
Snow 0.00 in 0.10 in - ()
Month to date snowfall T 0.6  
Since 1 July snowfall T 0.6  
Snow Depth 0.00 in    
Sea Level Pressure  
Sea Level Pressure 30.10 in    
Wind  
Wind Speed 9 mph (SW)    
Max Wind Speed 17 mph    
Max Gust Speed 22 mph    
Visibility 10 miles    
Events      
T = Trace of Precipitation, MM = Missing Value Source: NWS Daily Summary

Daily Weather History Graph

Daily Weather History Graph

Search for Another Location

Airport or City:

Trip Planner

Search our weather history database for the weather conditions in past years. The results will help you decide how hot, cold, wet, or windy it might be!

Date:

Astronomy

Oct. 25, 2013 Rise Set
Actual Time 8:09 AM CDT 6:40 PM CDT
Civil Twilight 7:39 AM CDT 7:10 PM CDT
Nautical Twilight 7:05 AM CDT 7:43 PM CDT
Astronomical Twilight 6:31 AM CDT 8:17 PM CDT
Moon 11:58 PM CDT (10/25) 1:54 PM CDT (10/25)
Length of Visible Light 11h 30m
Length of Day
10h 30m
Waning Gibbous, 62% of the Moon is Illuminated
Oct 25
Waning Gibbous
Oct 26
Last Quarter
Nov 3
New
Nov 9
First Quarter
Nov 17
Full

Hourly Weather History & Observations

Time (CDT) Temp. Windchill Dew Point Humidity Pressure Visibility Wind Dir Wind Speed Gust Speed Precip Events Conditions
12:53 AM 28.9 °F 25.2 °F 24.1 °F 82% 30.31 in 10.0 mi ESE 3.5 mph - N/A   Clear
1:53 AM 30.9 °F 26.2 °F 24.1 °F 76% 30.28 in 10.0 mi SE 4.6 mph - N/A   Clear
2:53 AM 30.0 °F 24.1 °F 24.1 °F 79% 30.26 in 10.0 mi SE 5.8 mph - N/A   Clear
3:53 AM 28.9 °F 25.2 °F 24.1 °F 82% 30.24 in 10.0 mi ESE 3.5 mph - N/A   Clear
4:53 AM 28.0 °F 20.0 °F 24.1 °F 85% 30.21 in 10.0 mi SSE 8.1 mph - N/A   Clear
5:53 AM 27.0 °F 21.6 °F 23.0 °F 85% 30.20 in 10.0 mi ESE 4.6 mph - N/A   Clear
6:53 AM 28.9 °F 22.8 °F 27.0 °F 92% 30.18 in 10.0 mi SE 5.8 mph - N/A   Clear
7:53 AM 28.0 °F 21.7 °F 27.0 °F 96% 30.15 in 10.0 mi South 5.8 mph - N/A   Clear
8:53 AM 28.0 °F - 27.0 °F 96% 30.14 in 10.0 mi Calm Calm - N/A   Clear
9:53 AM 35.1 °F - 32.0 °F 89% 30.12 in 10.0 mi Calm Calm - N/A   Clear
10:53 AM 42.1 °F 39.2 °F 36.0 °F 79% 30.10 in 10.0 mi SSW 4.6 mph - N/A   Clear
11:53 AM 48.9 °F - 37.9 °F 66% 30.07 in 10.0 mi WSW 11.5 mph - N/A   Clear
12:53 PM 53.1 °F - 39.9 °F 61% 30.04 in 10.0 mi WSW 9.2 mph - N/A   Clear
1:53 PM 59.0 °F - 42.1 °F 53% 30.01 in 10.0 mi West 9.2 mph - N/A   Clear
2:53 PM 63.0 °F - 43.0 °F 48% 29.97 in 10.0 mi SW 10.4 mph - N/A   Clear
3:53 PM 66.9 °F - 42.1 °F 40% 29.94 in 10.0 mi WSW 10.4 mph - N/A   Clear
4:53 PM 69.1 °F - 42.1 °F 38% 29.93 in 10.0 mi West 10.4 mph - N/A   Clear
5:53 PM 66.0 °F - 41.0 °F 40% 29.94 in 10.0 mi WNW 12.7 mph - N/A   Clear
6:53 PM 55.0 °F - 42.1 °F 62% 29.96 in 10.0 mi WNW 9.2 mph - N/A   Clear
7:53 PM 57.0 °F - 43.0 °F 59% 29.99 in 10.0 mi North 13.8 mph - N/A   Clear
8:53 PM 53.1 °F - 41.0 °F 64% 30.04 in 10.0 mi NNW 12.7 mph - N/A   Clear
9:53 PM 48.9 °F - 39.0 °F 69% 30.07 in 10.0 mi NW 11.5 mph - N/A   Clear
10:53 PM 44.1 °F 38.6 °F 37.0 °F 76% 30.08 in 10.0 mi WNW 10.4 mph - N/A   Clear
11:53 PM 46.0 °F 40.2 °F 37.9 °F 73% 30.09 in 10.0 mi NW 12.7 mph - N/A   Clear